AEROCUBE 7

Last updated on Mon Sep 21 2026 00:03:44 GMT+0000 (Coordinated Universal Time)

1 40966U 15058C 26263.55724820 .00001758 00000+0 14555-3 0 9999 2 40966 64.7608 305.9328 0127958 25.4311 335.3025 14.96325853380228
UTC large
Height (km)
Speed (km/s)
/
Latitude / Longitude
Inclination (degrees)
Orbital Period (minutes)
Azimuth
Elevation
Range (km)
Doppler Factor

Next 0 passes for location: London (51.5072 / 0.1276)

No passes found over London.
AEROCUBE 7